Location: Lone Wolf Observatory
(41.0360°N, 89.2260°W)
Time: 09:56:34
(UTC-06:00)

Amateur Radio Satellites - All Passes

Search period start: 26 November 2014 09:26
Search period end: 27 November 2014 09:26
Location: Lone Wolf Observatory, 41.0360°N, 89.2260°W

Satellite Date Start Highest point End Downlink Frequencies (MHz)
Time Altitude Azimuth
POPSAT HIP 1 26 Nov 09:29:13 09:33:06 35° 71° (ENE) 09:36:58 437.405
AISAT 26 Nov 09:45:54 09:49:25 23° 95° (E) 09:52:54 437.250
UKube-1 26 Nov 09:48:06 09:52:27 76° 103° (ESE) 09:56:46 .
ANTELSAT 26 Nov 09:48:30 09:52:46 85° 76° (ENE) 09:57:03 437.575/2403.000
GONETS M04 26 Nov 09:49:19 09:56:36 28° 292° (WNW) 10:04:00
BRITE-PL 26 Nov 09:49:26 09:53:01 29° 290° (WNW) 09:56:39 437.365/2234.400
FUNcube-1 26 Nov 09:51:36 09:55:38 41° 99° (E) 09:59:43 145.935
SEEDS 26 Nov 09:54:29 09:58:10 28° 291° (WNW) 10:01:50 437.485
Oscar 11 26 Nov 09:59:12 10:03:32 68° 285° (WNW) 10:07:51 145.826/435.025
CUBEBUG 1 26 Nov 09:59:49 10:00:50 11° 90° (E) 10:01:50 437.445
POLYITAN 1 26 Nov 10:02:32 10:06:48 86° 76° (ENE) 10:11:04 437.675
QB50P2 26 Nov 10:04:25 10:08:41 90° 76° (ENE) 10:12:58 145.880/145.840
DUCHIFAT 1 26 Nov 10:10:16 10:14:32 80° 257° (WSW) 10:18:48 145.980
SO-50 26 Nov 10:10:31 10:10:59 10° 32° (NNE) 10:11:26 436.795
AAUSAT CUBESAT 2 26 Nov 10:10:52 10:14:20 25° 291° (WNW) 10:17:48 437.432
DOVE 4 26 Nov 10:13:42 10:17:20 30° 290° (WNW) 10:21:04 437.250
DELFI C3 26 Nov 10:14:01 10:18:02 51° 286° (WNW) 10:22:03 145.870
UWE-3 26 Nov 10:18:22 10:22:37 81° 284° (WNW) 10:26:58 435.000/436.395/437.385
CUBEBUG 2 26 Nov 10:18:50 10:23:03 69° 285° (WNW) 10:27:22 437.445
50 SAT 26 Nov 10:20:18 10:24:12 43° 99° (E) 10:28:05 437.505
DX 1 26 Nov 10:24:13 10:28:19 42° 289° (WNW) 10:32:23 434.975-435.025
CANX-2 26 Nov 10:24:38 10:26:22 12° 297° (WNW) 10:28:05 2200.000
COMPASS 1 26 Nov 10:27:08 10:29:43 16° 295° (WNW) 10:32:18 437.405
NANOSAT C BR1 26 Nov 10:29:57 10:34:04 46° 261° (W) 10:38:10 145.865
HUMSAT D 26 Nov 10:33:30 10:37:41 77° 102° (ESE) 10:41:53 437.325/437.525
QB50P1 26 Nov 10:40:08 10:44:04 36° 262° (W) 10:48:00 145.935-145.965
TIGRISAT 26 Nov 10:43:33 10:47:00 24° 265° (W) 10:50:28 435.000
CINEMA 3 26 Nov 10:47:32 10:50:47 22° 292° (WNW) 10:54:06 145.822/145.860
BUGSAT 1 26 Nov 10:48:58 10:52:51 34° 262° (W) 10:56:44 437.445
ZACube-1 26 Nov 10:53:00 10:56:56 38° 288° (WNW) 11:00:56 437.345
ESTCUBE 1 26 Nov 10:55:04 10:59:29 48° 99° (E) 11:03:51 437.505/2401.250
VELOX 1 26 Nov 10:55:18 10:59:41 63° 286° (WNW) 11:04:02 145.980
UNISAT 6 26 Nov 10:58:13 11:01:00 17° 267° (W) 11:03:47 437.425
HO-68 26 Nov 11:04:48 11:09:17 18° 306° (NW) 11:13:46 435.675
POPSAT HIP 1 26 Nov 11:06:00 11:09:06 19° 266° (W) 11:12:12 437.405
TISAT 1 26 Nov 11:09:58 11:12:39 16° 93° (E) 11:15:18 437.305
SPROUT 26 Nov 11:20:34 11:23:40 19° 93° (E) 11:26:45 437.525
AISAT 26 Nov 11:22:09 11:26:05 32° 291° (WNW) 11:30:00 437.250
UKube-1 26 Nov 11:26:57 11:27:59 11° 299° (WNW) 11:29:02 .
FUNcube-1 26 Nov 11:28:55 11:31:42 17° 294° (WNW) 11:34:30 145.935
CUBEBUG 1 26 Nov 11:33:19 11:37:39 66° 286° (WNW) 11:41:56 437.445
SO-50 26 Nov 11:47:57 11:52:41 49° 53° (NE) 11:57:27 436.795
Oscar 19 26 Nov 11:55:26 11:59:59 34° 68° (ENE) 12:04:34 437.125/150
50 SAT 26 Nov 11:56:45 11:59:10 16° 295° (WNW) 12:01:35 437.505
ITUPSAT 1 26 Nov 12:08:56 12:09:56 11° 89° (E) 12:10:57 437.325
YUBILEINY 26 Nov 12:11:20 12:18:34 28° 68° (ENE) 12:25:43 435.215
SWISSCUBE 26 Nov 12:18:06 12:20:56 16° 91° (E) 12:23:45 437.505
ESTCUBE 1 26 Nov 12:33:02 12:35:58 17° 296° (WNW) 12:38:53 437.505/2401.250
CUSAT 1 26 Nov 12:40:27 12:43:08 66° 98° (E) 12:45:43 437.405
AUBIESAT-1 26 Nov 12:41:54 12:46:06 28° 100° (E) 12:50:11 437.475
TISAT 1 26 Nov 12:44:43 12:48:40 41° 288° (WNW) 12:52:36 437.305
M-CUBED/EXP-1 PRIME 26 Nov 12:47:14 12:51:44 34° 101° (E) 12:56:06 437.505
BEESAT 26 Nov 12:48:01 12:52:12 29° 96° (E) 12:56:20 436.000
ITAMSAT 1 26 Nov 12:49:03 12:53:57 43° 70° (ENE) 12:58:52 435.822/435.867
SPROUT 26 Nov 12:55:57 12:59:52 35° 289° (WNW) 13:03:45 437.525
DANDE 26 Nov 13:08:21 13:11:04 48° 281° (W) 13:13:36 436.750
VERMONT LUNAR 26 Nov 13:12:21 13:14:35 16° 148° (SSE) 13:16:50 437.305
Gurwin Techsat 1B 26 Nov 13:23:38 13:28:45 51° 71° (ENE) 13:33:54 435.225
HORYU 2 26 Nov 13:23:51 13:27:06 20° 66° (ENE) 13:30:22 437.375
SO-50 26 Nov 13:29:16 13:32:55 21° 249° (WSW) 13:36:35 436.795
Oscar 19 26 Nov 13:34:57 13:39:19 28° 264° (W) 13:43:44 437.125/150
ITUPSAT 1 26 Nov 13:43:34 13:48:24 79° 285° (WNW) 13:53:10 437.325
SWISSCUBE 26 Nov 13:54:26 13:59:08 55° 288° (WNW) 14:03:47 437.505
STARS 26 Nov 14:02:29 14:06:02 24° 95° (E) 14:09:33 437.465
YUBILEINY 26 Nov 14:07:25 14:15:58 64° 268° (W) 14:24:28 435.215
AUBIESAT-1 26 Nov 14:16:37 14:21:04 35° 296° (WNW) 14:25:27 437.475
AO-7 26 Nov 14:20:39 14:28:21 45° 62° (ENE) 14:36:06 29.400- 29.500
M-CUBED/EXP-1 PRIME 26 Nov 14:22:22 14:26:37 30° 297° (WNW) 14:30:48 437.505
BEESAT 26 Nov 14:25:50 14:29:59 30° 292° (WNW) 14:34:07 436.000
ITAMSAT 1 26 Nov 14:29:29 14:33:35 23° 266° (W) 14:37:43 435.822/435.867
O/OREOS (USA 219) 26 Nov 14:39:46 14:43:31 26° 59° (ENE) 14:47:16 437.305
PHONESAT 2.4 26 Nov 14:40:10 14:43:38 38° 158° (SSE) 14:47:07 2401.200-2431.200
KKS-1 26 Nov 14:43:33 14:48:00 82° 284° (WNW) 14:52:26 437.445
VERMONT LUNAR 26 Nov 14:49:04 14:52:35 52° 163° (SSE) 14:56:08 437.305
HORYU 2 26 Nov 14:59:24 15:03:31 38° 262° (W) 15:07:40 437.375
MaSat-1 26 Nov 15:03:08 15:06:03 53° 297° (WNW) 15:08:43 437.345
Gurwin Techsat 1B 26 Nov 15:05:11 15:08:59 20° 268° (W) 15:12:49 435.225
RS-15 26 Nov 15:13:46 15:24:09 51° 111° (ESE) 15:34:29 29.354- 29.394
JAS-2 26 Nov 15:34:15 15:41:23 44° 66° (ENE) 15:48:41 435.910
STARS 26 Nov 15:38:39 15:42:31 31° 291° (WNW) 15:46:23 437.465
MOZHAYETS 4 26 Nov 15:53:12 15:56:02 16° 91° (E) 15:58:52
YUBILEINY 26 Nov 16:10:03 16:10:51 10° 288° (WNW) 16:11:40 435.215
AO-7 26 Nov 16:13:25 16:21:07 42° 261° (W) 16:28:55 29.400- 29.500
CUTE-I 26 Nov 16:14:47 16:18:40 21° 63° (ENE) 16:22:34 437.470
PHONESAT 2.4 26 Nov 16:18:33 16:22:16 81° 175° (S) 16:26:00 2401.200-2431.200
O/OREOS (USA 219) 26 Nov 16:18:59 16:22:54 30° 256° (WSW) 16:26:49 437.305
VERMONT LUNAR 26 Nov 16:27:21 16:30:59 85° 180° (S) 16:34:38 437.305
PRISM 26 Nov 16:53:52 16:54:48 11° 90° (E) 16:55:43 437.425
Cubesat XI-IV 26 Nov 17:11:44 17:17:03 67° 73° (ENE) 17:22:23 437.490
JAS-2 26 Nov 17:19:11 17:26:18 42° 264° (W) 17:33:41 435.910
RS-15 26 Nov 17:26:02 17:36:32 50° 314° (NW) 17:47:08 29.354- 29.394
MOZHAYETS 4 26 Nov 17:29:02 17:33:33 51° 287° (WNW) 17:38:03
CUBESAT XI-V 26 Nov 17:36:44 17:39:09 14° 90° (E) 17:41:32 437.345
CUTE-I 26 Nov 17:53:06 17:58:19 53° 260° (W) 18:03:35 437.470
PCSat 26 Nov 17:54:12 17:56:40 13° 103° (ESE) 17:59:08 145.827
PHONESAT 2.4 26 Nov 17:57:20 18:01:02 67° 192° (SSW) 18:04:44 2401.200-2431.200
HO-68 26 Nov 18:00:28 18:03:51 14° 51° (NE) 18:07:14 435.675
GONETS M04 26 Nov 18:01:24 18:09:04 32° 69° (ENE) 18:16:38
VERMONT LUNAR 26 Nov 18:05:51 18:09:23 51° 197° (SSW) 18:12:55 437.305
STRAND 1 26 Nov 18:21:42 18:26:28 38° 98° (E) 18:31:11 437.568
PRISM 26 Nov 18:26:33 18:30:46 64° 286° (WNW) 18:34:55 437.425
GOMX 1 26 Nov 18:53:33 18:53:58 10° 62° (ENE) 18:54:22 467.674
Cubesat XI-IV 26 Nov 18:54:31 18:57:36 15° 269° (W) 19:00:41 437.490
SEEDS 26 Nov 19:12:07 19:14:57 18° 66° (ENE) 19:17:47 437.485
CUBESAT XI-V 26 Nov 19:12:22 19:16:58 58° 286° (WNW) 19:21:30 437.345
BRITE-PL 26 Nov 19:21:47 19:26:01 29° 70° (ENE) 19:30:00 437.365/2234.400
BEESAT 3 26 Nov 19:22:06 19:25:56 40° 116° (ESE) 19:29:50 437.485
AAUSAT CUBESAT 2 26 Nov 19:27:14 19:30:13 19° 67° (ENE) 19:33:13 437.432
AIST 1 26 Nov 19:32:07 19:36:31 84° 278° (W) 19:40:58
PCSat 26 Nov 19:33:55 19:39:19 81° 299° (WNW) 19:44:47 145.827
PHONESAT 2.4 26 Nov 19:36:29 19:39:30 24° 208° (SSW) 19:42:30 2401.200-2431.200
BEESAT 2 26 Nov 19:37:58 19:41:58 55° 118° (ESE) 19:46:04 435.950
CANX-2 26 Nov 19:39:52 19:43:52 44° 73° (ENE) 19:47:54 2200.000
COMPASS 1 26 Nov 19:42:15 19:45:56 31° 70° (ENE) 19:49:39 437.405
DOVE 4 26 Nov 19:42:18 19:45:57 24° 69° (ENE) 19:49:28 437.250
HO-68 26 Nov 19:43:09 19:50:16 70° 70° (ENE) 19:57:26 435.675
RS-15 26 Nov 19:44:34 19:52:29 22° 346° (NNW) 20:00:32 29.354- 29.394
VERMONT LUNAR 26 Nov 19:45:12 19:47:23 15° 212° (SSW) 19:49:34 437.305
DX 1 26 Nov 19:45:16 19:47:59 16° 64° (ENE) 19:50:41 434.975-435.025
GONETS M04 26 Nov 19:57:45 20:06:20 58° 269° (W) 20:14:49
STRAND 1 26 Nov 20:01:17 20:05:26 26° 295° (WNW) 20:09:35 437.568
CINEMA 3 26 Nov 20:12:14 20:16:01 29° 70° (ENE) 20:19:42 145.822/145.860
CUTE 1.7 + AOD 2 26 Nov 20:14:11 20:18:24 81° 258° (WSW) 20:22:39 437.475
ZACube-1 26 Nov 20:14:53 20:17:11 15° 65° (ENE) 20:19:30 437.345
AIST 2 26 Nov 20:15:42 20:19:53 68° 120° (ESE) 20:24:10 435.215
VELOX 1 26 Nov 20:19:41 20:21:24 12° 61° (ENE) 20:23:07 145.980
GOMX 1 26 Nov 20:26:43 20:31:31 85° 257° (WSW) 20:36:01 467.674
UKube-1 26 Nov 20:43:03 20:47:21 64° 74° (ENE) 20:51:41 .
AISAT 26 Nov 20:44:28 20:47:55 22° 66° (ENE) 20:51:22 437.250
SEEDS 26 Nov 20:46:34 20:50:29 39° 262° (W) 20:54:27 437.485
FUNcube-1 26 Nov 20:48:02 20:51:47 32° 71° (ENE) 20:55:30 145.935
Oscar 11 26 Nov 20:53:45 20:58:03 89° 259° (WSW) 21:02:23 145.826/435.025
CUBEBUG 1 26 Nov 20:57:08 20:58:01 11° 61° (ENE) 20:58:54 437.445
BRITE-PL 26 Nov 21:00:07 21:04:28 29° 263° (W) 21:08:34 437.365/2234.400
BEESAT 3 26 Nov 21:01:06 21:04:19 22° 314° (NW) 21:07:35 437.485
AAUSAT CUBESAT 2 26 Nov 21:01:52 21:05:40 35° 263° (W) 21:09:30 437.432
DELFI C3 26 Nov 21:02:29 21:06:32 83° 258° (WSW) 21:10:39 145.870
50 SAT 26 Nov 21:09:36 21:13:03 28° 70° (ENE) 21:16:30 437.505
UWE-3 26 Nov 21:15:45 21:19:59 81° 76° (ENE) 21:24:10 435.000/436.395/437.385
CUBEBUG 2 26 Nov 21:17:17 21:21:33 83° 258° (WSW) 21:25:45 437.445
CANX-2 26 Nov 21:17:35 21:20:02 15° 268° (W) 21:22:30 2200.000
BEESAT 2 26 Nov 21:17:45 21:20:36 18° 317° (NW) 21:23:29 435.950
COMPASS 1 26 Nov 21:18:34 21:21:43 21° 266° (W) 21:24:54 437.405
DOVE 4 26 Nov 21:19:33 21:23:37 31° 263° (W) 21:27:31 437.250
DX 1 26 Nov 21:19:35 21:23:50 48° 260° (W) 21:28:05 434.975-435.025
PCSat 26 Nov 21:20:33 21:23:37 15° 320° (NW) 21:26:42 145.827
HUMSAT D 26 Nov 21:25:51 21:29:52 53° 74° (ENE) 21:33:53 437.325/437.525
HO-68 26 Nov 21:33:14 21:38:32 22° 268° (W) 21:43:52 435.675
ANTELSAT 26 Nov 21:41:39 21:44:45 18° 93° (E) 21:47:53 437.575/2403.000
ISS 26 Nov 21:42:46 21:44:11 12° 129° (SE) 21:45:36 145.825
ZACube-1 26 Nov 21:49:07 21:53:11 48° 261° (W) 21:57:14 437.345
CINEMA 3 26 Nov 21:49:43 21:53:14 23° 265° (W) 21:56:40 145.822/145.860
POLYITAN 1 26 Nov 21:50:15 21:52:32 14° 92° (E) 21:54:48 437.675
QB50P2 26 Nov 21:51:48 21:54:13 15° 92° (E) 21:56:38 145.880/145.840
VELOX 1 26 Nov 21:52:56 21:57:24 71° 258° (WSW) 22:01:52 145.980
ESTCUBE 1 26 Nov 21:54:46 21:59:05 45° 72° (ENE) 22:03:26 437.505/2401.250
AIST 2 26 Nov 21:56:19 21:58:59 16° 318° (NW) 22:01:41 435.215
DUCHIFAT 1 26 Nov 21:57:01 21:59:44 17° 93° (E) 22:02:26 145.980
RS-15 26 Nov 22:01:34 22:10:16 25° 23° (NNE) 22:19:11 29.354- 29.394
TISAT 1 26 Nov 22:03:38 22:05:47 14° 63° (ENE) 22:07:57 437.305
SPROUT 26 Nov 22:15:38 22:18:18 16° 65° (ENE) 22:20:59 437.525
NANOSAT C BR1 26 Nov 22:15:52 22:19:29 27° 96° (E) 22:23:04 145.865
AISAT 26 Nov 22:20:14 22:24:20 35° 262° (W) 22:28:28 437.250
UKube-1 26 Nov 22:22:37 22:23:56 11° 270° (W) 22:25:15 .
FUNcube-1 26 Nov 22:25:06 22:28:12 20° 266° (W) 22:31:18 145.935
QB50P1 26 Nov 22:25:41 22:29:34 35° 98° (E) 22:33:26 145.935-145.965
CUBEBUG 1 26 Nov 22:29:17 22:33:44 81° 257° (WSW) 22:38:12 437.445
BUGSAT 1 26 Nov 22:31:47 22:35:29 32° 97° (E) 22:39:07 437.445
TIGRISAT 26 Nov 22:34:14 22:38:39 66° 101° (ESE) 22:43:10 435.000
50 SAT 26 Nov 22:45:13 22:48:21 22° 265° (W) 22:51:30 437.505
UNISAT 6 26 Nov 22:48:24 22:52:52 86° 284° (WNW) 22:57:26 437.425
POPSAT HIP 1 26 Nov 22:50:23 22:54:36 68° 102° (ESE) 22:58:48 437.405
HUMSAT D 26 Nov 23:04:22 23:06:00 12° 269° (W) 23:07:39 437.325/437.525
ITUPSAT 1 26 Nov 23:15:20 23:17:48 14° 61° (ENE) 23:20:16 437.325
CUSAT 1 26 Nov 23:16:22 23:21:04 58° 80° (E) 23:27:21 437.405
ISS 26 Nov 23:17:08 23:20:24 73° 325° (NW) 23:23:42 145.825
ANTELSAT 26 Nov 23:17:30 23:21:42 42° 288° (WNW) 23:25:59 437.575/2403.000
POLYITAN 1 26 Nov 23:24:40 23:28:45 47° 287° (WNW) 23:32:48 437.675
SWISSCUBE 26 Nov 23:24:53 23:28:13 19° 64° (ENE) 23:31:34 437.505
QB50P2 26 Nov 23:26:20 23:30:23 45° 288° (WNW) 23:34:25 145.880/145.840
AUBIESAT-1 26 Nov 23:31:23 23:35:04 32° 63° (ENE) 23:39:03 437.475
DUCHIFAT 1 26 Nov 23:31:50 23:35:47 40° 288° (WNW) 23:39:43 145.980
ESTCUBE 1 26 Nov 23:33:08 23:36:10 18° 268° (W) 23:39:14 437.505/2401.250
TISAT 1 26 Nov 23:36:59 23:41:10 55° 260° (W) 23:45:22 437.305
M-CUBED/EXP-1 PRIME 26 Nov 23:37:06 23:40:56 40° 65° (ENE) 23:45:08 437.505
DANDE 26 Nov 23:46:21 23:50:58 90° 259° (W) 23:57:17 436.750
SPROUT 26 Nov 23:49:52 23:54:01 46° 261° (W) 23:58:12 437.525
NANOSAT C BR1 26 Nov 23:51:49 23:55:16 25° 292° (WNW) 23:58:43 145.865
BEESAT 26 Nov 23:54:36 23:58:53 34° 69° (ENE) 00:03:11 436.000
QB50P1 27 Nov 00:02:10 00:05:15 20° 294° (WNW) 00:08:18 145.935-145.965
BUGSAT 1 27 Nov 00:07:49 00:10:46 20° 294° (WNW) 00:13:42 437.445
Oscar 19 27 Nov 00:09:09 00:10:53 12° 89° (E) 00:12:36 437.125/150
TIGRISAT 27 Nov 00:12:56 00:14:54 13° 297° (WNW) 00:16:53 435.000
RS-15 27 Nov 00:14:16 00:25:25 64° 52° (NE) 00:37:01 29.354- 29.394
POPSAT HIP 1 27 Nov 00:28:42 00:29:56 11° 298° (WNW) 00:31:11 437.405
MaSat-1 27 Nov 00:41:42 00:43:41 24° 249° (WSW) 00:45:43 437.345
ITUPSAT 1 27 Nov 00:50:19 00:55:06 69° 258° (WSW) 00:59:56 437.325
ISS 27 Nov 00:55:09 00:57:30 18° 344° (NNW) 00:59:52 145.825
STARS 27 Nov 01:00:06 01:03:28 22° 66° (ENE) 01:06:50 437.465
CUSAT 1 27 Nov 01:00:47 01:04:06 18° 268° (W) 01:07:59 437.405
SWISSCUBE 27 Nov 01:01:04 01:05:42 48° 260° (W) 01:10:23 437.505
ITAMSAT 1 27 Nov 01:03:26 01:06:21 15° 91° (E) 01:09:14 435.822/435.867
AUBIESAT-1 27 Nov 01:06:51 01:10:07 23° 262° (W) 01:13:38 437.475
YUBILEINY 27 Nov 01:12:33 01:19:59 32° 84° (E) 01:27:23 435.215
M-CUBED/EXP-1 PRIME 27 Nov 01:13:22 01:16:13 18° 264° (W) 01:19:15 437.505
BEESAT 27 Nov 01:32:46 01:36:45 26° 265° (W) 01:40:45 436.000
Gurwin Techsat 1B 27 Nov 01:40:46 01:44:41 21° 93° (E) 01:48:34 435.225
KKS-1 27 Nov 01:41:37 01:46:05 89° 79° (E) 01:50:33 437.445
Oscar 19 27 Nov 01:45:37 01:50:48 81° 285° (WNW) 01:55:59 437.125/150
SO-50 27 Nov 02:04:47 02:07:19 15° 108° (ESE) 02:09:53 436.795
AO-7 27 Nov 02:25:41 02:28:21 12° 87° (E) 02:31:00 29.400- 29.500
RS-15 27 Nov 02:27:15 02:37:14 38° 253° (WSW) 02:47:37 29.354- 29.394
ISS 27 Nov 02:33:26 02:35:09 13° 4° (N) 02:36:52 145.825
STARS 27 Nov 02:35:44 02:39:45 34° 262° (W) 02:43:47 437.465
PCSat 27 Nov 02:40:09 02:43:08 15° 40° (NE) 02:46:06 145.827
ITAMSAT 1 27 Nov 02:41:08 02:46:17 65° 287° (WNW) 02:51:22 435.822/435.867
HORYU 2 27 Nov 02:50:53 02:55:08 40° 99° (E) 02:59:22 437.375
MOZHAYETS 4 27 Nov 02:55:49 02:58:33 16° 63° (ENE) 03:01:18
YUBILEINY 27 Nov 03:07:42 03:16:18 56° 283° (WNW) 03:24:54 435.215
Gurwin Techsat 1B 27 Nov 03:19:47 03:24:54 49° 289° (WNW) 03:29:59 435.225
Oscar 19 27 Nov 03:28:09 03:29:17 11° 302° (WNW) 03:30:25 437.125/150
BEESAT 3 27 Nov 03:42:16 03:45:53 27° 48° (NE) 03:49:28 437.485
SO-50 27 Nov 03:42:51 03:47:18 60° 306° (NW) 03:51:56 436.795
BEESAT 2 27 Nov 03:58:30 04:02:23 35° 51° (NE) 04:06:13 435.950
ISS 27 Nov 04:09:45 04:12:38 27° 24° (NNE) 04:15:31 145.825
AO-7 27 Nov 04:14:10 04:22:32 69° 105° (ESE) 04:30:51 29.400- 29.500
PCSat 27 Nov 04:22:00 04:27:27 78° 60° (ENE) 04:32:52 145.827
HORYU 2 27 Nov 04:28:16 04:31:32 20° 295° (WNW) 04:34:47 437.375
JAS-2 27 Nov 04:30:04 04:36:20 35° 93° (E) 04:41:55 435.910
MOZHAYETS 4 27 Nov 04:30:48 04:35:18 55° 260° (W) 04:39:52
AIST 2 27 Nov 04:38:00 04:42:09 43° 52° (NE) 04:46:13 435.215
CUBESAT XI-V 27 Nov 04:40:35 04:43:14 15° 63° (ENE) 04:45:54 437.345
O/OREOS (USA 219) 27 Nov 04:51:58 04:55:50 29° 104° (ESE) 04:59:42 437.305
YUBILEINY 27 Nov 05:14:55 05:15:25 10° 306° (NW) 05:15:54 435.215
PRISM 27 Nov 05:17:04 05:21:16 87° 257° (WSW) 05:25:32 437.425
BEESAT 3 27 Nov 05:20:25 05:24:06 30° 246° (WSW) 05:27:44 437.485
SO-50 27 Nov 05:27:30 05:28:52 11° 326° (NNW) 05:30:15 436.795
Cubesat XI-IV 27 Nov 05:29:48 05:34:15 27° 95° (E) 05:38:40 437.490
BEESAT 2 27 Nov 05:37:09 05:40:29 23° 248° (WSW) 05:43:47 435.950
STRAND 1 27 Nov 05:37:21 05:42:22 56° 72° (ENE) 05:47:24 437.568
AIST 1 27 Nov 05:40:18 05:43:50 23° 73° (ENE) 05:47:20
ISS 27 Nov 05:46:14 05:49:23 44° 222° (SW) 05:52:33 145.825
PCSat 27 Nov 06:07:29 06:10:08 14° 257° (WSW) 06:12:47 145.827
AO-7 27 Nov 06:07:52 06:14:39 29° 304° (NW) 06:21:27 29.400- 29.500
CUTE-I 27 Nov 06:10:16 06:15:33 62° 102° (ESE) 06:20:47 437.470
JAS-2 27 Nov 06:14:55 06:21:26 41° 294° (WNW) 06:27:15 435.910
CUBESAT XI-V 27 Nov 06:15:30 06:20:10 61° 259° (W) 06:24:52 437.345
AIST 2 27 Nov 06:17:26 06:20:27 19° 250° (WSW) 06:23:26 435.215
O/OREOS (USA 219) 27 Nov 06:31:22 06:35:11 27° 301° (WNW) 06:39:01 437.305
GONETS M04 27 Nov 07:02:32 07:10:14 36° 85° (E) 07:17:59
Cubesat XI-IV 27 Nov 07:09:30 07:14:25 39° 291° (WNW) 07:19:17 437.490
HO-68 27 Nov 07:14:53 07:16:49 11° 87° (E) 07:18:45 435.675
AIST 1 27 Nov 07:17:44 07:21:29 28° 270° (W) 07:25:10
STRAND 1 27 Nov 07:18:31 07:21:53 18° 268° (W) 07:25:16 437.568
CUTE-I 27 Nov 07:51:37 07:55:06 18° 299° (WNW) 07:58:34 437.470
CUTE 1.7 + AOD 2 27 Nov 08:00:53 08:03:50 18° 93° (E) 08:06:46 437.475
GOMX 1 27 Nov 08:29:09 08:32:36 24° 96° (E) 08:36:06 467.674
SEEDS 27 Nov 08:31:26 08:35:20 33° 97° (E) 08:39:12 437.485
UKube-1 27 Nov 08:34:01 08:34:56 11° 90° (E) 08:35:51 .
ANTELSAT 27 Nov 08:41:55 08:44:32 16° 65° (ENE) 08:47:08 437.575/2403.000
Oscar 11 27 Nov 08:42:30 08:45:21 17° 92° (E) 08:48:12 145.826/435.025
POLYITAN 1 27 Nov 08:44:56 08:46:34 12° 63° (ENE) 08:48:12 437.675
DELFI C3 27 Nov 08:45:01 08:47:19 15° 92° (E) 08:49:37 145.870
AAUSAT CUBESAT 2 27 Nov 08:45:28 08:49:23 35° 97° (E) 08:53:17 437.432
QB50P2 27 Nov 08:46:13 08:48:00 13° 63° (ENE) 08:49:48 145.880/145.840
DUCHIFAT 1 27 Nov 08:50:55 08:53:05 14° 64° (ENE) 08:55:14 145.980
GONETS M04 27 Nov 08:58:15 09:06:43 50° 284° (WNW) 09:15:17
HO-68 27 Nov 08:58:28 09:05:40 73° 104° (ESE) 09:12:48 435.675
CANX-2 27 Nov 09:01:10 09:05:29 87° 283° (WNW) 09:09:47 2200.000
COMPASS 1 27 Nov 09:01:32 09:05:45 63° 101° (E) 09:09:58 437.405
BRITE-PL 27 Nov 09:04:17 09:08:26 88° 103° (ESE) 09:12:40 437.365/2234.400
UWE-3 27 Nov 09:07:04 09:09:44 16° 93° (E) 09:12:25 435.000/436.395/437.385
DX 1 27 Nov 09:08:34 09:12:18 27° 96° (E) 09:16:00 434.975-435.025
NANOSAT C BR1 27 Nov 09:09:19 09:12:34 22° 67° (ENE) 09:15:49 145.865
CUBEBUG 2 27 Nov 09:09:21 09:12:29 20° 94° (E) 09:15:41 437.445
DOVE 4 27 Nov 09:18:03 09:22:13 66° 101° (ESE) 09:26:31 437.250
QB50P1 27 Nov 09:19:00 09:22:36 27° 69° (ENE) 09:26:12 145.935-145.965
